OBJECT AA, 47437

Orbit data source: Space-Track

You're viewing an Uncataloged Satellite

Recently launched and/or uncataloged satellites may have evolving metadata. Metadata may include but not limited to: Owner, Maufacturer, Bus, Motor, and Mission.

OBJECT AA, 47437 is a satellite in SSO that was launched on Sun, 24 Jan 2021 UTC launched from the Air Force Eastern Test Range (AFETR). Unknown objects in Earth's orbit typically refer to objects detected orbiting the Earth but have not yet been identified or cataloged. These objects could be anything from previously untracked satellites, spent rocket stages, debris from satellite collisions, or even natural meteoroids temporarily captured by Earth's gravity.

Loading next visibility...
OBJECT AA details
Identifier
47437, 2021-006AA
Orbit
SSO
Last TLE update12 hours ago
Origin
Flag of TBDSpaceX/Seattle (TBD)
ManufacturerSpaceX/Seattle
MissionSpacecraft
Bus & MotorUnknown
Mass~100 kg wet, ~100 kg dry
Launch date (UTC)
2021-01-24 (4 years ago)
Launch vehicleUnknown
Launch site
Air Force Eastern Test Range (AFETR)
Object typeUnknown
Shape & HBRCyl, Unknown HBR
Radar Cross Section0.110 m², Medium (>0.1 m² and < 1m²)

Expand to show TLE details & history

TLE from 12 hours ago
0 OBJECT AA
1 47437U 21006AA  24348.10471628  .00006077  00000-0  25695-3 0  9994
2 47437  97.3051  32.2793 0010328   8.5643 351.5768 15.23531061215198
Epoch: 2024-12-13T02:30Z
Definitive object data (Epoch: 2024-12-13T02:30:47.486Z)
Latitude-0.00009°
Longitude-87.69403°
Altitude491.274 km
Speed7.623 km/s
True Right ascension02h 09m 07s
True Declination0° 00' 00"
Sunlit
Object was in full shadow at TLE epoch
Visualization TLE readout
Latitude-55.32842°
Longitude-76.57141°
Altitude513.411 km
Speed7.607 km/s
Apparent Right ascension02h 03m 29s
Apparent Declination-48° 17' 24"
Sunlit
Object is in daylight
Visualization observer readout
Local Sidereal Time13:23:24
Azimuth217.265° SW
Elevation-78.979°
Doppler factor1
Orbital elements
Apogee altitude499.252 km
Perigee altitude485.061 km
Semi-major axis6,870.294 km
Eccentricity0.0010328
Inclination97.3051°
RAAN32.2793°
Arg. of periapsis8.5643°
True anomaly351.55944°
Mean anomaly351.5768°
Eccentric anomaly351.56812°
Mean motion3.81136 °/min
BSTAR0.00025695
Orbital period94.45 mins
Loading maneuver chart data...

OBJECT AA Visibility forecast

Observer location: undefined°, undefined

Span
Click to sort rows by Start time (UTC) header in descending order
Start Az.
Max El. time (UTC)
Max El. Az.
Max El.
End time (UTC)
End Az.
7 mins2024-12-13 15:40:45.235Z24.644° NE2024-12-13 15:43:45.235Z73.363° E34.023°2024-12-13 15:47:45.235Z173.477° S
4 mins2024-12-14 03:52:45.235Z225.153° WSW2024-12-14 03:54:45.235Z278.478° WNW23.272°2024-12-14 03:56:45.235Z317.033° NNW
|